EW2270 Weather Reports


time (UTC)temp
F
wind
direction
speed
knots
gust
knots
rain 1hr
in
rain 24hr
in
rain mn
in
humidity
%
barometer
mb
20260509183047 67 130 0.9 3.5 0.00 0.00 0.00 45 1019.4
20260509181545 66 200 0.9 4.3 0.00 0.00 0.00 48 1019.6
20260509180039 64 309 3.5 5.2 0.00 0.00 0.00 50 1019.7
20260509174538 64 30 0.9 5.2 0.00 0.00 0.00 50 1019.9
20260509173037 63 305 1.7 7.0 0.00 0.00 0.00 52 1019.8
20260509171538 63 50 2.6 6.1 0.00 0.00 0.00 52 1019.8
20260509170037 64 4 2.6 5.2 0.00 0.00 0.00 51 1019.9
20260509164534 63 209 0.0 4.3 0.00 0.00 0.00 52 1020.1
20260509163048 63 266 0.9 1.7 0.00 0.00 0.00 49 1020.2
20260509161531 61 225 0.0 2.6 0.00 0.00 0.00 53 1020.3
20260509160030 60 257 0.0 4.3 0.00 0.00 0.00 54 1020.3
20260509154526 60 271 0.9 2.6 0.00 0.00 0.00 55 1020.4
20260509153025 59 204 1.7 3.5 0.00 0.00 0.00 56 1020.1
20260509151521 58 176 2.6 4.3 0.00 0.00 0.00 57 1020.1
20260509150017 57 210 0.9 3.5 0.00 0.00 0.00 65 1020.3
20260509144516 55 245 2.6 3.5 0.00 0.00 0.00 70 1020.3
20260509143014 56 180 0.0 1.7 0.00 0.00 0.00 72 1020.2
20260509141517 51 203 0.9 2.6 0.00 0.00 0.00 80 1020.1
20260509140011 49 115 0.0 0.9 0.00 0.00 0.00 79 1020.3
20260509134509 47 115 0.0 1.7 0.00 0.00 0.00 78 1020.3
20260509133009 47 115 0.0 1.7 0.00 0.00 0.00 77 1020.3
20260509131510 45 115 0.0 0.9 0.00 0.00 0.00 79 1020.1
20260509130012 43 115 0.0 1.7 0.00 0.00 0.00 83 1020.1
20260509124502 44 115 0.9 2.6 0.00 0.00 0.00 81 1019.8
20260509123002 48 138 3.5 5.2 0.00 0.00 0.00 74 1019.8
20260509121600 45 139 0.9 2.6 0.00 0.00 0.00 80 1019.9
20260509120058 45 141 0.9 4.3 0.00 0.00 0.00 79 1019.8
20260509114559 47 140 2.6 5.2 0.00 0.00 0.00 77 1019.7
20260509113052 46 143 1.7 3.5 0.00 0.00 0.00 77 1019.9
20260509111551 47 146 0.0 4.3 0.00 0.00 0.00 75 1019.8
20260509110054 49 150 4.3 6.1 0.00 0.00 0.00 73 1019.7
20260509104546 49 94 2.6 5.2 0.00 0.00 0.00 71 1019.9
20260509103044 48 148 4.3 6.1 0.00 0.00 0.00 73 1019.7
20260509101543 49 142 2.6 5.2 0.00 0.00 0.00 70 1019.6
20260509100044 50 143 1.7 3.5 0.00 0.00 0.00 71 1019.8
20260509094540 49 167 0.9 4.3 0.00 0.00 0.00 72 1019.6
20260509093038 51 107 1.7 3.5 0.00 0.00 0.00 68 1019.6
20260509091538 53 198 6.1 9.6 0.00 0.00 0.00 64 1019.4
20260509090035 52 174 4.3 7.8 0.00 0.00 0.00 65 1019.4
20260509084539 51 159 5.2 7.0 0.00 0.00 0.00 69 1019.3
20260509083035 49 141 4.3 7.0 0.00 0.00 0.00 72 1019.4
20260509081532 49 134 1.7 7.0 0.00 0.00 0.00 71 1019.3
20260509080040 50 137 2.6 5.2 0.00 0.00 0.00 69 1019.2
20260509074527 50 127 0.9 4.3 0.00 0.00 0.00 69 1019.1
20260509073037 54 125 2.6 5.2 0.00 0.00 0.00 62 1019.0
20260509071518 55 166 4.3 7.8 0.00 0.00 0.00 58 1018.8
20260509070019 56 178 4.3 8.7 0.00 0.00 0.00 57 1018.6
20260509064514 56 174 6.1 8.7 0.00 0.00 0.00 57 1018.6
20260509063013 57 184 5.2 9.6 0.00 0.00 0.00 54 1018.6
20260509061512 57 203 6.1 10.4 0.00 0.00 0.00 54 1018.5
20260509060016 58 223 7.0 10.4 0.00 0.00 0.00 52 1018.4
20260509054518 58 167 5.2 13.0 0.00 0.00 0.00 52 1018.4
20260509053013 58 205 4.3 9.6 0.00 0.00 0.00 51 1018.2
20260509051506 59 174 7.0 11.3 0.00 0.00 0.00 48 1018.1
20260509050006 59 187 5.2 11.3 0.00 0.00 0.00 48 1017.9
20260509044503 60 244 5.2 10.4 0.00 0.00 0.00 45 1017.7
20260509043001 60 191 6.1 13.0 0.00 0.00 0.00 44 1017.5
20260509041600 60 240 2.6 11.3 0.00 0.00 0.00 44 1017.3
20260509040107 61 238 3.5 8.7 0.00 0.00 0.00 44 1017.2
20260509034556 61 207 6.1 8.7 0.00 0.00 0.00 43 1016.8
20260509033055 61 193 3.5 8.7 0.00 0.00 0.00 43 1016.7
20260509031552 63 193 6.1 10.4 0.00 0.00 0.00 40 1016.2
20260509030050 64 199 6.1 11.3 0.00 0.00 0.00 38 1015.7
20260509024548 66 262 10.4 17.4 0.00 0.00 0.00 35 1015.6
20260509023048 67 239 12.2 20.9 0.00 0.00 0.00 34 1015.4
20260509021547 68 255 11.3 23.5 0.00 0.00 0.00 33 1015.2
20260509020047 69 265 13.0 20.9 0.00 0.00 0.00 32 1015.0
20260509014546 70 245 20.0 26.9 0.00 0.00 0.00 30 1015.0
20260509013058 71 272 13.9 23.5 0.00 0.00 0.00 29 1014.7
20260509011545 71 236 13.0 24.3 0.00 0.00 0.00 26 1014.7
20260509010044 71 255 17.4 24.3 0.00 0.00 0.00 25 1014.8
20260509004607 72 257 17.4 26.9 0.00 0.00 0.00 25 1014.9
20260509003048 72 232 19.1 26.9 0.00 0.00 0.00 25 1015.1
20260509001543 73 271 16.5 26.1 0.00 0.00 0.00 25 1014.9
20260509000042 72 263 16.5 24.3 0.00 0.00 0.00 23 1015.0
20260508234545 72 252 14.8 23.5 0.00 0.00 0.00 21 1014.9
20260508233040 72 250 15.6 23.5 0.00 0.00 0.00 22 1014.9
20260508231539 73 229 16.5 28.7 0.00 0.00 0.00 18 1014.9
20260508230052 73 269 13.0 22.6 0.00 0.00 0.00 22 1014.8
20260508224538 72 254 13.0 21.7 0.00 0.00 0.00 20 1014.8
20260508223036 73 259 15.6 20.9 0.00 0.00 0.00 21 1014.9
20260508221537 72 253 12.2 21.7 0.00 0.00 0.00 24 1014.9
20260508220034 72 249 13.9 20.0 0.00 0.00 0.00 24 1014.8
20260508214534 73 273 14.8 20.0 0.00 0.00 0.00 24 1014.9
20260508213031 72 262 12.2 18.2 0.00 0.00 0.00 26 1014.9
20260508211534 71 285 13.0 19.1 0.00 0.00 0.00 31 1015.0
20260508210035 71 258 14.8 23.5 0.00 0.00 0.00 30 1015.0
20260508204529 72 285 13.9 23.5 0.00 0.00 0.00 34 1014.7
20260508203028 72 288 15.6 20.9 0.00 0.00 0.00 32 1014.7
20260508201527 74 245 9.6 14.8 0.00 0.00 0.00 28 1014.3
20260508200036 73 290 2.6 7.0 0.00 0.00 0.00 32 1014.2
20260508194522 70 259 2.6 6.1 0.00 0.00 0.00 30 1014.4
20260508193022 70 269 3.5 8.7 0.00 0.00 0.00 33 1014.4
20260508191524 70 214 0.9 7.8 0.00 0.00 0.00 31 1014.6
20260508190021 70 241 2.6 13.0 0.00 0.00 0.00 31 1014.9